Time,TemperatureF,DewpointF,PressureIn,WindDirection,WindDirectionDegrees,WindSpeedMPH,WindSpeedGustMPH,Humidity,HourlyPrecipIn,Conditions,Clouds,dailyrainin,SoftwareType,DateUTC
2013-01-09 08:20:00,78.6,67.2,30.12,ESE,108,12.0,15.0,68,0.00,,,0.01,Wunderground v.1.15,2013-01-09 12:20:00,
2013-01-09 08:30:00,78.8,67.3,30.12,ENE,61,14.0,14.0,68,0.00,,,0.02,Wunderground v.1.15,2013-01-09 12:30:00,
2013-01-09 08:40:00,79.2,68.1,30.12,NE,49,13.0,13.0,69,0.00,,,0.02,Wunderground v.1.15,2013-01-09 12:40:00,
2013-01-09 08:50:00,79.2,67.3,30.13,ENE,63,15.0,17.0,67,0.00,,,0.02,Wunderground v.1.15,2013-01-09 12:50:00,
2013-01-09 09:00:00,79.6,66.3,30.13,ENE,57,14.0,14.0,64,0.00,,,0.02,Wunderground v.1.15,2013-01-09 13:00:00,
2013-01-09 09:10:00,80.3,66.6,30.14,ENE,63,15.0,15.0,63,0.00,,,0.02,Wunderground v.1.15,2013-01-09 13:10:00,
2013-01-09 09:20:00,80.3,65.1,30.15,NE,46,16.0,16.0,60,0.00,,,0.02,Wunderground v.1.15,2013-01-09 13:20:00,
2013-01-09 09:30:00,80.5,65.3,30.15,NE,54,16.0,17.0,60,0.00,,,0.02,Wunderground v.1.15,2013-01-09 13:30:00,
2013-01-09 09:40:00,81.2,66.0,30.15,ENE,76,13.0,13.0,60,0.00,,,0.02,Wunderground v.1.15,2013-01-09 13:40:00,
2013-01-09 09:50:00,81.8,65.6,30.15,ENE,72,12.0,21.0,58,0.00,,,0.02,Wunderground v.1.15,2013-01-09 13:50:00,
2013-01-09 10:00:00,81.6,65.4,30.15,ENE,57,16.0,17.0,58,0.00,,,0.02,Wunderground v.1.15,2013-01-09 14:00:00,
2013-01-09 10:10:00,81.6,66.4,30.14,ENE,72,17.0,17.0,60,0.00,,,0.02,Wunderground v.1.15,2013-01-09 14:10:00,
2013-01-09 10:20:00,81.6,66.4,30.14,ESE,106,17.0,17.0,60,0.00,,,0.02,Wunderground v.1.15,2013-01-09 14:20:00,
2013-01-09 10:30:00,82.6,67.8,30.14,ENE,57,14.0,14.0,61,0.00,,,0.02,Wunderground v.1.15,2013-01-09 14:30:00,
2013-01-09 10:40:00,82.8,67.5,30.14,NE,56,14.0,17.0,60,0.00,,,0.02,Wunderground v.1.15,2013-01-09 14:40:00,
2013-01-09 10:50:00,82.8,67.5,30.13,ENE,66,14.0,20.0,60,0.00,,,0.02,Wunderground v.1.15,2013-01-09 14:50:00,
2013-01-09 11:00:00,82.8,67.5,30.13,ENE,67,14.0,14.0,60,0.00,,,0.02,Wunderground v.1.15,2013-01-09 15:00:00,
2013-01-09 11:10:00,82.6,66.8,30.13,NE,45,14.0,17.0,59,0.00,,,0.02,Wunderground v.1.15,2013-01-09 15:10:00,
2013-01-09 11:20:00,83.0,67.7,30.12,ESE,103,15.0,15.0,60,0.00,,,0.02,Wunderground v.1.15,2013-01-09 15:20:00,
2013-01-09 11:30:00,83.6,67.8,30.12,NE,51,15.0,15.0,59,0.00,,,0.02,Wunderground v.1.15,2013-01-09 15:30:00,
2013-01-09 11:40:00,83.8,67.4,30.11,NE,49,15.0,16.0,58,0.00,,,0.02,Wunderground v.1.15,2013-01-09 15:40:00,
2013-01-09 11:50:00,83.4,67.1,30.11,East,86,14.0,14.0,58,0.00,,,0.02,Wunderground v.1.15,2013-01-09 15:50:00,
2013-01-09 12:00:00,83.8,67.4,30.11,East,79,14.0,15.0,58,0.00,,,0.02,Wunderground v.1.15,2013-01-09 16:00:00,
2013-01-09 12:10:00,83.6,65.7,30.10,East,93,15.0,15.0,55,0.00,,,0.02,Wunderground v.1.15,2013-01-09 16:10:00,
2013-01-09 12:20:00,82.8,66.0,30.09,ENE,57,16.0,21.0,57,0.00,,,0.02,Wunderground v.1.15,2013-01-09 16:20:00,
2013-01-09 12:30:00,82.4,67.6,30.09,ENE,62,17.0,18.0,61,0.00,,,0.02,Wunderground v.1.15,2013-01-09 16:30:00,
2013-01-09 12:40:00,83.2,67.9,30.09,ENE,75,15.0,16.0,60,0.00,,,0.02,Wunderground v.1.15,2013-01-09 16:40:00,
2013-01-09 12:50:00,83.2,67.4,30.09,ENE,74,15.0,15.0,59,0.00,,,0.02,Wunderground v.1.15,2013-01-09 16:50:00,
2013-01-09 13:00:00,83.8,68.4,30.09,ENE,71,14.0,17.0,60,0.00,,,0.02,Wunderground v.1.15,2013-01-09 17:00:00,
2013-01-09 13:10:00,84.1,67.2,30.08,East,89,15.0,19.0,57,0.00,,,0.02,Wunderground v.1.15,2013-01-09 17:10:00,
2013-01-09 13:20:00,83.6,67.3,30.07,East,93,15.0,18.0,58,0.00,,,0.02,Wunderground v.1.15,2013-01-09 17:20:00,
2013-01-09 13:30:00,83.4,68.1,30.07,ENE,63,14.0,15.0,60,0.00,,,0.02,Wunderground v.1.15,2013-01-09 17:30:00,
2013-01-09 13:40:00,83.6,67.8,30.07,ENE,59,14.0,14.0,59,0.00,,,0.02,Wunderground v.1.15,2013-01-09 17:40:00,
2013-01-09 13:50:00,83.2,67.9,30.07,East,84,15.0,15.0,60,0.00,,,0.02,Wunderground v.1.15,2013-01-09 17:50:00,
2013-01-09 14:00:00,83.2,66.9,30.07,ENE,62,14.0,16.0,58,0.00,,,0.02,Wunderground v.1.15,2013-01-09 18:00:00,
2013-01-09 14:10:00,83.6,66.2,30.07,ENE,65,13.0,13.0,56,0.00,,,0.02,Wunderground v.1.15,2013-01-09 18:10:00,
2013-01-09 14:20:00,81.8,67.5,30.07,ENE,65,13.0,14.0,62,0.00,,,0.02,Wunderground v.1.15,2013-01-09 18:20:00,
2013-01-09 14:30:00,81.1,67.8,30.07,NNE,29,13.0,13.0,64,0.00,,,0.02,Wunderground v.1.15,2013-01-09 18:30:00,
2013-01-09 14:40:00,80.9,67.1,30.07,ENE,58,12.0,12.0,63,0.00,,,0.02,Wunderground v.1.15,2013-01-09 18:40:00,
2013-01-09 14:50:00,81.8,67.5,30.06,ENE,60,10.0,16.0,62,0.00,,,0.02,Wunderground v.1.15,2013-01-09 18:50:00,
2013-01-09 15:00:00,82.4,65.6,30.06,East,84,15.0,15.0,57,0.00,,,0.02,Wunderground v.1.15,2013-01-09 19:00:00,
2013-01-09 15:10:00,81.8,65.1,30.06,East,82,16.0,16.0,57,0.00,,,0.02,Wunderground v.1.15,2013-01-09 19:10:00,
2013-01-09 15:20:00,82.4,64.6,30.06,ESE,109,13.0,13.0,55,0.00,,,0.02,Wunderground v.1.15,2013-01-09 19:20:00,
2013-01-09 15:30:00,82.4,65.6,30.06,ENE,74,14.0,18.0,57,0.00,,,0.02,Wunderground v.1.15,2013-01-09 19:30:00,
2013-01-09 15:40:00,81.8,65.1,30.06,East,91,14.0,16.0,57,0.00,,,0.02,Wunderground v.1.15,2013-01-09 19:40:00,
2013-01-09 15:50:00,81.6,66.4,30.06,ENE,66,13.0,18.0,60,0.00,,,0.02,Wunderground v.1.15,2013-01-09 19:50:00,
2013-01-09 16:00:00,81.8,65.6,30.06,East,87,13.0,13.0,58,0.00,,,0.02,Wunderground v.1.15,2013-01-09 20:00:00,
2013-01-09 16:10:00,81.4,66.2,30.06,ENE,78,13.0,16.0,60,0.00,,,0.02,Wunderground v.1.15,2013-01-09 20:10:00,
2013-01-09 16:20:00,80.7,66.9,30.06,ENE,76,13.0,16.0,63,0.00,,,0.02,Wunderground v.1.15,2013-01-09 20:20:00,
2013-01-09 16:30:00,80.3,67.5,30.06,ENE,60,14.0,14.0,65,0.00,,,0.02,Wunderground v.1.15,2013-01-09 20:30:00,
2013-01-09 16:40:00,80.3,67.9,30.06,NE,51,13.0,16.0,66,0.00,,,0.02,Wunderground v.1.15,2013-01-09 20:40:00,
2013-01-09 16:50:00,79.6,67.2,30.06,ENE,58,13.0,13.0,66,0.00,,,0.02,Wunderground v.1.15,2013-01-09 20:50:00,
2013-01-09 17:00:00,79.0,66.7,30.06,East,86,13.0,13.0,66,0.00,,,0.02,Wunderground v.1.15,2013-01-09 21:00:00,
2013-01-09 17:10:00,79.2,66.9,30.06,ENE,74,10.0,10.0,66,0.00,,,0.02,Wunderground v.1.15,2013-01-09 21:10:00,
2013-01-09 17:20:00,78.8,67.3,30.06,ESE,107,12.0,12.0,68,0.00,,,0.02,Wunderground v.1.15,2013-01-09 21:20:00,
2013-01-09 17:30:00,78.5,66.6,30.06,ENE,72,11.0,12.0,67,0.00,,,0.02,Wunderground v.1.15,2013-01-09 21:30:00,
2013-01-09 17:40:00,78.1,66.7,30.06,East,79,11.0,11.0,68,0.00,,,0.02,Wunderground v.1.15,2013-01-09 21:40:00,
2013-01-09 17:50:00,77.4,65.6,30.06,ENE,59,11.0,11.0,67,0.00,,,0.02,Wunderground v.1.15,2013-01-09 21:50:00,
2013-01-09 18:00:00,77.0,65.6,30.06,ENE,76,11.0,11.0,68,0.00,,,0.02,Wunderground v.1.15,2013-01-09 22:00:00,
2013-01-09 18:10:00,76.8,65.9,30.07,NE,46,10.0,12.0,69,0.00,,,0.02,Wunderground v.1.15,2013-01-09 22:10:00,
2013-01-09 18:20:00,76.8,66.7,30.07,ENE,59,10.0,10.0,71,0.00,,,0.02,Wunderground v.1.15,2013-01-09 22:20:00,
2013-01-09 18:30:00,76.7,66.6,30.07,ENE,72,9.0,9.0,71,0.00,,,0.02,Wunderground v.1.15,2013-01-09 22:30:00,
2013-01-09 18:40:00,76.8,66.7,30.07,ENE,64,10.0,10.0,71,0.00,,,0.02,Wunderground v.1.15,2013-01-09 22:40:00,
2013-01-09 18:50:00,76.8,65.9,30.07,NE,53,12.0,12.0,69,0.00,,,0.02,Wunderground v.1.15,2013-01-09 22:50:00,
2013-01-09 19:00:00,76.7,65.8,30.07,ENE,63,11.0,11.0,69,0.00,,,0.02,Wunderground v.1.15,2013-01-09 23:00:00,
2013-01-09 19:10:00,76.7,65.8,30.09,ENE,61,11.0,11.0,69,0.00,,,0.02,Wunderground v.1.15,2013-01-09 23:10:00,
2013-01-09 19:20:00,76.5,65.6,30.09,ENE,57,7.0,7.0,69,0.00,,,0.02,Wunderground v.1.15,2013-01-09 23:20:00,
2013-01-09 19:30:00,76.5,65.6,30.09,ENE,57,9.0,9.0,69,0.00,,,0.02,Wunderground v.1.15,2013-01-09 23:30:00,
2013-01-09 19:40:00,76.3,65.4,30.09,East,88,9.0,10.0,69,0.00,,,0.02,Wunderground v.1.15,2013-01-09 23:40:00,
2013-01-09 19:50:00,76.7,65.8,30.09,NE,53,10.0,12.0,69,0.00,,,0.02,Wunderground v.1.15,2013-01-09 23:50:00,
2013-01-09 20:00:00,76.7,65.8,30.09,NE,42,11.0,11.0,69,0.00,,,0.02,Wunderground v.1.15,2013-01-10 00:00:00,